Dati Storici

Data ora Umidita' aria (%) Temperatura aria (°C) Rad globale (W/m²) Gonioanemometro (°) Tacoanemometro (m/s) Pioggia (mm)
27-10-2012 12:10 93.4 % 15.185 94.268 191.612 0.252 0
27-10-2012 12:00 93.4 % 14.984 131.99 176.597 0.206 0
27-10-2012 11:50 93.7 % 14.886 127.708 170.576 1.034 0
27-10-2012 11:40 94.5 % 14.866 193.658 191.605 0.856 0
27-10-2012 11:30 95.1 % 14.548 201.525 210.012 0.753 0
27-10-2012 11:20 95.6 % 14.367 171.576 254.421 0.733 0
27-10-2012 11:10 96 % 14.22 63.891 194.268 0.663 0
27-10-2012 11:00 96.4 % 14.266 76.432 191.682 0.871 0
27-10-2012 10:50 96.7 % 14.384 99.336 244.213 0.667 0
27-10-2012 10:40 96.8 % 14.246 137.115 215.67 1.198 0
27-10-2012 10:30 96.9 % 14.139 95.501 171.88 0.744 0
27-10-2012 10:20 97 % 14.056 65.466 202.883 0.595 0
27-10-2012 10:10 96.9 % 13.928 58.731 196.186 0.189 0
27-10-2012 10:00 97 % 13.906 32.202 1.118 0.428 0
27-10-2012 09:50 97 % 13.833 35.409 216.697 -0.014 0
27-10-2012 09:40 97 % 13.801 32.342 220.956 0.598 0
27-10-2012 09:30 97.1 % 13.887 45.586 246.775 0.252 0
27-10-2012 09:20 97.1 % 13.805 39.589 307.982 0.48 0
27-10-2012 09:10 97.1 % 13.743 38.395 264.13 -0.015 0
27-10-2012 09:00 97.2 % 13.652 37.608 274.823 0.151 0

I dati sono presentati in modo automatico a scopo informativo. In seguito a verifica i dati possono subire modifiche o essere invalidati e non riportati negli archivi definitivi.